TRA21F LEZL-EBBR

Flight info

Callsign TRA21F
Flight time 2h 14m
Altitude 36000
Route HIJ DCT PARKA DCT SOTUK DCT USOKO DCT TLD DCT SIE DCT EDIGO DCT DGO L176 LUSEM DCT LULUT DCT ADABI DCT BOKNO DCT DEVRO DCT VANAD DCT PIWIZ DCT VADOM DCT BAMES DCT PODEM DCT BAZOS/N0442F340 DCT BELDI DCT VEKIN Z173 ARVOL
Aircraft B738/M-SDE2E3FGHIJ1P2RWXY/LB1

Departure

Time 2026-05-05 09:29
Airport Seville Airport (LEZL)

Arrival

Time 2026-05-05 11:44
Airport Brussels Airport (EBBR)
Time Latitude Longitude Altitude Speed Heading
2026-05-05 09:10 37.42214 -5.89948 93 ft 0 kts 314°
2026-05-05 09:20 37.42201 -5.89930 93 ft 4 kts 314°
2026-05-05 09:20 37.42184 -5.89910 79 ft 4 kts 307°
2026-05-05 09:21 37.42176 -5.89882 91 ft 4 kts 258°
2026-05-05 09:21 37.42186 -5.89856 94 ft 2 kts 224°
2026-05-05 09:21 37.42190 -5.89851 93 ft 0 kts 224°
2026-05-05 09:24 37.42182 -5.89861 93 ft 3 kts 224°
2026-05-05 09:24 37.42154 -5.89896 93 ft 8 kts 224°
2026-05-05 09:24 37.42104 -5.89957 93 ft 12 kts 224°
2026-05-05 09:24 37.42042 -5.89911 94 ft 14 kts 132°
2026-05-05 09:25 37.41982 -5.89823 96 ft 15 kts 95°
2026-05-05 09:25 37.41981 -5.89677 96 ft 18 kts 90°
2026-05-05 09:25 37.41982 -5.89508 97 ft 21 kts 92°
2026-05-05 09:25 37.41983 -5.89319 98 ft 23 kts 89°
2026-05-05 09:26 37.41984 -5.89109 100 ft 25 kts 89°
2026-05-05 09:26 37.41984 -5.88880 99 ft 27 kts 89°
2026-05-05 09:26 37.41985 -5.88640 103 ft 27 kts 90°
2026-05-05 09:26 37.41986 -5.88413 104 ft 25 kts 90°
2026-05-05 09:27 37.41987 -5.88200 105 ft 23 kts 91°
2026-05-05 09:27 37.41987 -5.87999 106 ft 23 kts 89°
2026-05-05 09:27 37.41988 -5.87804 107 ft 22 kts 90°
2026-05-05 09:27 37.41988 -5.87621 108 ft 17 kts 89°
2026-05-05 09:28 37.41970 -5.87491 109 ft 15 kts 116°
2026-05-05 09:28 37.41888 -5.87425 112 ft 14 kts 180°
2026-05-05 09:28 37.41805 -5.87479 115 ft 14 kts 245°
2026-05-05 09:28 37.41800 -5.87650 112 ft 44 kts 269°
2026-05-05 09:29 37.41799 -5.88413 106 ft 127 kts 270°
2026-05-05 09:29 37.41793 -5.89753 447 ft 164 kts 270°
2026-05-05 09:29 37.41826 -5.91183 1454 ft 165 kts 279°
2026-05-05 09:29 37.42198 -5.92609 2158 ft 187 kts 302°
2026-05-05 09:30 37.43148 -5.93873 2538 ft 210 kts 320°
2026-05-05 09:30 37.44310 -5.95147 3029 ft 227 kts 319°
2026-05-05 09:30 37.45543 -5.96552 3449 ft 252 kts 318°
2026-05-05 09:30 37.46851 -5.98074 4295 ft 258 kts 317°
2026-05-05 09:31 37.48162 -5.99616 5305 ft 257 kts 316°
2026-05-05 09:31 37.49468 -6.01169 6216 ft 260 kts 316°
2026-05-05 09:31 37.50769 -6.02723 7092 ft 262 kts 315°
2026-05-05 09:31 37.52097 -6.04312 7956 ft 264 kts 315°
2026-05-05 09:32 37.53437 -6.05916 8831 ft 267 kts 315°
2026-05-05 09:32 37.54786 -6.07534 9687 ft 269 kts 314°
2026-05-05 09:32 37.56153 -6.09173 10452 ft 275 kts 314°
2026-05-05 09:32 37.57794 -6.10626 10650 ft 306 kts 335°
2026-05-05 09:33 37.59996 -6.11042 10887 ft 338 kts
2026-05-05 09:33 37.62263 -6.10019 11422 ft 360 kts 30°
2026-05-05 09:33 37.64148 -6.07872 12151 ft 369 kts 41°
2026-05-05 09:33 37.66033 -6.05625 12768 ft 376 kts 38°
2026-05-05 09:34 37.67986 -6.03405 13507 ft 380 kts 37°
2026-05-05 09:34 37.69978 -6.01182 14179 ft 384 kts 37°
2026-05-05 09:34 37.72003 -5.98936 14805 ft 389 kts 37°
2026-05-05 09:34 37.74049 -5.96666 15448 ft 393 kts 37°
2026-05-05 09:35 37.76092 -5.94400 16068 ft 398 kts 37°
2026-05-05 09:35 37.80295 -5.89724 17287 ft 407 kts 37°
2026-05-05 09:35 37.82435 -5.87338 17928 ft 412 kts 37°
2026-05-05 09:36 37.84596 -5.84926 18501 ft 416 kts 37°
2026-05-05 09:36 37.86781 -5.82488 19003 ft 421 kts 37°
2026-05-05 09:36 37.88983 -5.80022 19528 ft 425 kts 37°
2026-05-05 09:36 37.91205 -5.77527 20057 ft 428 kts 37°
2026-05-05 09:37 37.93447 -5.75009 20569 ft 432 kts 37°
2026-05-05 09:37 37.95711 -5.72467 21064 ft 436 kts 37°
2026-05-05 09:37 37.97965 -5.69938 21527 ft 440 kts 37°
2026-05-05 09:37 38.00273 -5.67347 21954 ft 446 kts 37°
2026-05-05 09:38 38.02603 -5.64727 22421 ft 450 kts 37°
2026-05-05 09:38 38.04956 -5.62080 22922 ft 453 kts 37°
2026-05-05 09:38 38.07324 -5.59412 23405 ft 458 kts 36°
2026-05-05 09:38 38.09723 -5.56709 23722 ft 464 kts 36°
2026-05-05 09:39 38.12158 -5.53963 24062 ft 468 kts 36°
2026-05-05 09:39 38.14597 -5.51208 24480 ft 470 kts 36°
2026-05-05 09:39 38.17043 -5.48440 24880 ft 473 kts 36°
2026-05-05 09:39 38.19512 -5.45646 25224 ft 477 kts 36°
2026-05-05 09:40 38.21999 -5.42829 25564 ft 480 kts 36°
2026-05-05 09:40 38.24471 -5.40027 25910 ft 484 kts 36°
2026-05-05 09:40 38.26990 -5.37168 26253 ft 487 kts 36°
2026-05-05 09:40 38.29533 -5.34279 26595 ft 490 kts 36°
2026-05-05 09:41 38.32084 -5.31378 26909 ft 493 kts 36°
2026-05-05 09:41 38.34649 -5.28458 27223 ft 496 kts 36°
2026-05-05 09:41 38.37233 -5.25514 27538 ft 499 kts 36°
2026-05-05 09:41 38.39831 -5.22549 27856 ft 502 kts 36°
2026-05-05 09:42 38.42442 -5.19566 28176 ft 505 kts 36°
2026-05-05 09:42 38.45064 -5.16570 28484 ft 508 kts 36°
2026-05-05 09:42 38.47737 -5.13608 28766 ft 506 kts 30°
2026-05-05 09:42 38.50733 -5.11538 28985 ft 491 kts 11°
2026-05-05 09:43 38.54029 -5.10490 29334 ft 475 kts 357°
2026-05-05 09:43 38.57233 -5.10420 29621 ft 463 kts 346°
2026-05-05 09:43 38.60446 -5.10776 29796 ft 465 kts 344°
2026-05-05 09:43 38.63676 -5.11179 30071 ft 467 kts 345°
2026-05-05 09:44 38.66919 -5.11576 30343 ft 468 kts 345°
2026-05-05 09:44 38.70171 -5.11946 30722 ft 467 kts 345°
2026-05-05 09:44 38.73403 -5.12289 31154 ft 464 kts 345°
2026-05-05 09:44 38.76623 -5.12617 31521 ft 463 kts 345°
2026-05-05 09:45 38.79795 -5.12938 31912 ft 462 kts 345°
2026-05-05 09:45 38.82995 -5.13260 32298 ft 460 kts 345°
2026-05-05 09:45 38.86173 -5.13583 32674 ft 458 kts 345°
2026-05-05 09:45 38.89348 -5.13908 33001 ft 457 kts 345°
2026-05-05 09:46 38.92511 -5.14232 33341 ft 456 kts 345°
2026-05-05 09:46 38.95705 -5.14345 33663 ft 470 kts 357°
2026-05-05 09:46 38.98935 -5.13183 33931 ft 497 kts 18°
2026-05-05 09:46 39.01856 -5.10680 34254 ft 515 kts 38°
2026-05-05 09:47 39.04127 -5.07076 34649 ft 522 kts 54°
2026-05-05 09:47 39.06010 -5.03092 35003 ft 520 kts 56°
2026-05-05 09:47 39.07824 -4.99072 35297 ft 518 kts 57°
2026-05-05 09:47 39.09638 -4.95080 35605 ft 515 kts 56°
2026-05-05 09:48 39.11465 -4.91169 35820 ft 516 kts 56°
2026-05-05 09:48 39.13345 -4.87235 35960 ft 516 kts 55°
2026-05-05 09:48 39.17210 -4.79419 36012 ft 514 kts 48°
2026-05-05 09:49 39.19618 -4.76074 36042 ft 505 kts 36°
2026-05-05 09:49 39.22386 -4.73327 36038 ft 498 kts 26°
2026-05-05 09:49 39.25408 -4.71236 36021 ft 488 kts 15°
2026-05-05 09:49 39.28555 -4.69623 36053 ft 487 kts 14°
2026-05-05 09:50 39.34849 -4.66476 36031 ft 489 kts 14°
2026-05-05 09:50 39.41197 -4.63225 36020 ft 491 kts 15°
2026-05-05 09:51 39.47555 -4.59899 36018 ft 493 kts 15°
2026-05-05 09:51 39.53915 -4.56552 36010 ft 494 kts 15°
2026-05-05 09:52 39.60279 -4.53201 36013 ft 494 kts 15°
2026-05-05 09:52 39.66649 -4.49843 36007 ft 494 kts 15°
2026-05-05 09:53 39.72982 -4.46498 36040 ft 494 kts 15°
2026-05-05 09:53 39.79353 -4.43127 36011 ft 494 kts 15°
2026-05-05 09:54 39.85731 -4.39715 36006 ft 494 kts 15°
2026-05-05 09:54 39.92088 -4.36292 36006 ft 494 kts 15°
2026-05-05 09:55 39.98439 -4.32856 36018 ft 495 kts 17°
2026-05-05 09:55 40.04678 -4.29122 36014 ft 497 kts 19°
2026-05-05 09:56 40.10916 -4.25234 36003 ft 496 kts 19°
2026-05-05 09:56 40.17154 -4.21376 35998 ft 495 kts 19°
2026-05-05 09:57 40.23388 -4.17554 36006 ft 495 kts 19°
2026-05-05 09:57 40.29620 -4.13740 35998 ft 494 kts 19°
2026-05-05 09:58 40.35800 -4.09949 35995 ft 493 kts 19°
2026-05-05 09:58 40.42011 -4.06129 36030 ft 493 kts 20°
2026-05-05 09:59 40.47181 -4.02943 36005 ft 493 kts 20°
2026-05-05 09:59 40.53380 -3.99112 36004 ft 492 kts 20°
2026-05-05 10:00 40.59572 -3.95280 36011 ft 491 kts 20°
2026-05-05 10:00 40.65750 -3.91451 36024 ft 491 kts 20°
2026-05-05 10:01 40.71943 -3.87605 36025 ft 491 kts 20°
2026-05-05 10:01 40.78084 -3.83782 36019 ft 491 kts 20°
2026-05-05 10:02 40.84265 -3.79925 35983 ft 491 kts 20°
2026-05-05 10:02 40.90432 -3.76070 36003 ft 492 kts 20°
2026-05-05 10:03 40.96626 -3.72189 36013 ft 493 kts 20°
2026-05-05 10:03 41.02836 -3.68290 36012 ft 494 kts 20°
2026-05-05 10:04 41.09050 -3.64380 36037 ft 495 kts 21°
2026-05-05 10:04 41.15281 -3.60457 36023 ft 495 kts 20°
2026-05-05 10:05 41.21613 -3.56870 36018 ft 493 kts 17°
2026-05-05 10:05 41.27983 -3.53480 36010 ft 493 kts 17°
2026-05-05 10:06 41.34298 -3.50064 36020 ft 491 kts 18°
2026-05-05 10:06 41.40612 -3.46595 36008 ft 490 kts 18°
2026-05-05 10:07 41.46896 -3.43132 36004 ft 488 kts 18°
2026-05-05 10:07 41.53162 -3.39679 36042 ft 486 kts 18°
2026-05-05 10:08 41.59415 -3.36231 36021 ft 485 kts 18°
2026-05-05 10:08 41.65620 -3.32803 36017 ft 485 kts 18°
2026-05-05 10:09 41.71852 -3.29351 36020 ft 484 kts 18°
2026-05-05 10:09 41.78091 -3.25888 36026 ft 485 kts 18°
2026-05-05 10:10 41.84328 -3.22418 36016 ft 485 kts 19°
2026-05-05 10:10 41.90571 -3.18937 36019 ft 485 kts 19°
2026-05-05 10:11 41.96771 -3.15473 36036 ft 486 kts 19°
2026-05-05 10:11 42.03015 -3.11977 36025 ft 486 kts 19°
2026-05-05 10:12 42.09275 -3.08465 36007 ft 487 kts 19°
2026-05-05 10:12 42.15524 -3.04951 35992 ft 486 kts 19°
2026-05-05 10:13 42.21770 -3.01431 36004 ft 486 kts 19°
2026-05-05 10:13 42.27980 -2.97924 36004 ft 486 kts 19°
2026-05-05 10:14 42.34229 -2.94386 35992 ft 486 kts 19°
2026-05-05 10:14 42.40473 -2.90845 36005 ft 486 kts 20°
2026-05-05 10:15 42.46506 -2.86681 35995 ft 490 kts 33°
2026-05-05 10:15 42.51697 -2.80664 36003 ft 491 kts 40°
2026-05-05 10:16 42.56747 -2.74409 36005 ft 491 kts 40°
2026-05-05 10:16 42.61820 -2.68199 36009 ft 491 kts 40°
2026-05-05 10:17 42.66920 -2.62016 35994 ft 491 kts 40°
2026-05-05 10:17 42.71994 -2.55869 36006 ft 491 kts 40°
2026-05-05 10:18 42.77103 -2.49661 35991 ft 492 kts 40°
2026-05-05 10:18 42.82202 -2.43445 35995 ft 492 kts 40°
2026-05-05 10:19 42.87293 -2.37225 36011 ft 492 kts 40°
2026-05-05 10:19 42.92390 -2.30981 36021 ft 492 kts 40°
2026-05-05 10:20 42.97484 -2.24730 35998 ft 493 kts 40°
2026-05-05 10:20 43.02582 -2.18445 36020 ft 494 kts 40°
2026-05-05 10:21 43.07671 -2.12143 36023 ft 494 kts 41°
2026-05-05 10:21 43.12738 -2.05863 36022 ft 495 kts 41°
2026-05-05 10:22 43.17839 -1.99534 36022 ft 495 kts 41°
2026-05-05 10:22 43.22949 -1.93176 36025 ft 496 kts 41°
2026-05-05 10:23 43.28052 -1.86813 36011 ft 496 kts 41°
2026-05-05 10:23 43.33448 -1.80980 36013 ft 492 kts 27°
2026-05-05 10:24 43.39460 -1.76509 36017 ft 491 kts 28°
2026-05-05 10:24 43.45196 -1.71472 36039 ft 493 kts 32°
2026-05-05 10:25 43.50868 -1.66158 36028 ft 493 kts 32°
2026-05-05 10:25 43.56583 -1.60872 36018 ft 493 kts 32°
2026-05-05 10:26 43.62304 -1.55656 36024 ft 492 kts 31°
2026-05-05 10:26 43.67984 -1.50496 36002 ft 491 kts 32°
2026-05-05 10:27 43.73694 -1.45294 36015 ft 490 kts 32°
2026-05-05 10:27 43.79384 -1.40094 36016 ft 490 kts 32°
2026-05-05 10:28 43.85071 -1.34882 36024 ft 490 kts 32°
2026-05-05 10:28 43.90751 -1.29664 36006 ft 489 kts 32°
2026-05-05 10:29 43.96419 -1.24446 36006 ft 489 kts 32°
2026-05-05 10:29 44.02083 -1.19219 35998 ft 488 kts 32°
2026-05-05 10:30 44.07741 -1.13986 35979 ft 488 kts 32°
2026-05-05 10:30 44.13389 -1.08749 35989 ft 487 kts 32°
2026-05-05 10:31 44.19019 -1.03516 35988 ft 486 kts 32°
2026-05-05 10:31 44.24611 -0.98307 35996 ft 486 kts 33°
2026-05-05 10:32 44.30233 -0.93057 35976 ft 486 kts 33°
2026-05-05 10:32 44.35850 -0.87801 35978 ft 485 kts 33°
2026-05-05 10:33 44.41568 -0.82784 35975 ft 484 kts 24°
2026-05-05 10:33 44.47692 -0.79010 35961 ft 483 kts 21°
2026-05-05 10:34 44.53884 -0.75387 35954 ft 482 kts 21°
2026-05-05 10:34 44.60056 -0.71695 35976 ft 482 kts 22°
2026-05-05 10:35 44.66219 -0.67932 35973 ft 481 kts 22°
2026-05-05 10:35 44.72359 -0.64152 35966 ft 482 kts 22°
2026-05-05 10:36 44.78496 -0.60364 35963 ft 481 kts 22°
2026-05-05 10:36 44.84632 -0.56572 35964 ft 480 kts 22°
2026-05-05 10:37 44.90751 -0.52783 35964 ft 480 kts 22°
2026-05-05 10:37 44.96826 -0.49013 35962 ft 480 kts 22°
2026-05-05 10:38 45.02938 -0.45211 35967 ft 480 kts 23°
2026-05-05 10:38 45.09052 -0.41399 35946 ft 480 kts 23°
2026-05-05 10:39 45.15160 -0.37581 35946 ft 479 kts 23°
2026-05-05 10:39 45.21258 -0.33761 35964 ft 479 kts 23°
2026-05-05 10:40 45.27313 -0.29959 35942 ft 478 kts 23°
2026-05-05 10:40 45.33386 -0.26136 35939 ft 477 kts 23°
2026-05-05 10:41 45.39447 -0.22312 35954 ft 476 kts 24°
2026-05-05 10:41 45.45496 -0.18487 35933 ft 475 kts 24°
2026-05-05 10:42 45.54548 -0.12745 35937 ft 473 kts 24°
2026-05-05 10:43 45.60564 -0.08919 35946 ft 473 kts 24°
2026-05-05 10:43 45.66572 -0.05088 35932 ft 472 kts 24°
2026-05-05 10:44 45.72540 -0.01274 35933 ft 472 kts 24°
2026-05-05 10:44 45.77563 0.01944 35913 ft 472 kts 24°
2026-05-05 10:45 45.84532 0.06418 35922 ft 472 kts 24°
2026-05-05 10:45 45.90533 0.10281 35922 ft 473 kts 24°
2026-05-05 10:46 45.95566 0.13528 35909 ft 473 kts 24°
2026-05-05 10:46 46.01573 0.17412 35913 ft 474 kts 24°
2026-05-05 10:47 46.07544 0.21281 35915 ft 474 kts 24°
2026-05-05 10:47 46.13597 0.25213 35904 ft 474 kts 24°
2026-05-05 10:48 46.19570 0.29103 35914 ft 474 kts 25°
2026-05-05 10:48 46.25590 0.33033 35893 ft 474 kts 25°
2026-05-05 10:49 46.31601 0.36966 35898 ft 473 kts 25°
2026-05-05 10:49 46.37601 0.40902 35875 ft 474 kts 25°
2026-05-05 10:50 46.43606 0.44851 35883 ft 473 kts 25°
2026-05-05 10:50 46.49606 0.48806 35881 ft 473 kts 25°
2026-05-05 10:51 46.55564 0.52702 35882 ft 472 kts 22°
2026-05-05 10:51 46.61896 0.55206 35885 ft 472 kts 13°
2026-05-05 10:52 46.68320 0.57192 35878 ft 471 kts 13°
2026-05-05 10:52 46.74725 0.59233 35875 ft 471 kts 13°
2026-05-05 10:53 46.81112 0.61338 35876 ft 471 kts 13°
2026-05-05 10:53 46.87499 0.63463 35872 ft 470 kts 13°
2026-05-05 10:54 46.93847 0.65577 35862 ft 470 kts 13°
2026-05-05 10:54 47.00226 0.67704 35869 ft 470 kts 13°
2026-05-05 10:55 47.06640 0.69594 35860 ft 470 kts
2026-05-05 10:55 47.13179 0.70277 35863 ft 470 kts
2026-05-05 10:56 47.19670 0.70799 35865 ft 470 kts
2026-05-05 10:56 47.26202 0.71430 35858 ft 470 kts
2026-05-05 10:57 47.32738 0.72118 35853 ft 470 kts
2026-05-05 10:57 47.39268 0.72810 35853 ft 470 kts
2026-05-05 10:58 47.45782 0.73497 35857 ft 469 kts
2026-05-05 10:58 47.52202 0.74963 35850 ft 466 kts 19°
2026-05-05 10:59 47.58317 0.78034 35853 ft 465 kts 20°
2026-05-05 10:59 47.64440 0.81162 35848 ft 465 kts 20°
2026-05-05 11:00 47.70512 0.84180 35831 ft 465 kts 20°
2026-05-05 11:00 47.76652 0.87208 35835 ft 464 kts 20°
2026-05-05 11:01 47.82703 0.90202 35834 ft 464 kts 20°
2026-05-05 11:01 47.88755 0.93233 35850 ft 468 kts 20°
2026-05-05 11:02 47.94961 0.96380 35811 ft 471 kts 20°
2026-05-05 11:02 48.01158 0.99527 35838 ft 469 kts 20°
2026-05-05 11:03 48.07299 1.02648 35820 ft 468 kts 20°
2026-05-05 11:03 48.13456 1.05786 35817 ft 467 kts 20°
2026-05-05 11:04 48.19586 1.08918 35831 ft 464 kts 20°
2026-05-05 11:04 48.25695 1.12037 35839 ft 463 kts 20°
2026-05-05 11:05 48.31792 1.15142 35853 ft 463 kts 20°
2026-05-05 11:05 48.37897 1.18260 35851 ft 464 kts 20°
2026-05-05 11:06 48.44016 1.21397 35845 ft 465 kts 20°
2026-05-05 11:06 48.50142 1.24544 35842 ft 465 kts 20°
2026-05-05 11:07 48.56223 1.27674 35852 ft 464 kts 20°
2026-05-05 11:07 48.62354 1.30768 35840 ft 465 kts 20°
2026-05-05 11:08 48.68500 1.33855 35853 ft 466 kts 20°
2026-05-05 11:08 48.74681 1.36977 35878 ft 469 kts 20°
2026-05-05 11:09 48.80903 1.40135 35861 ft 473 kts 20°
2026-05-05 11:09 48.87101 1.43289 35870 ft 473 kts 20°
2026-05-05 11:10 48.93349 1.46476 35877 ft 473 kts 20°
2026-05-05 11:10 48.99657 1.49321 35874 ft 474 kts 11°
2026-05-05 11:11 49.06180 1.50760 35872 ft 473 kts
2026-05-05 11:11 49.12694 1.52148 35874 ft 472 kts
2026-05-05 11:12 49.19199 1.53668 35879 ft 472 kts
2026-05-05 11:12 49.25514 1.56222 35899 ft 468 kts 27°
2026-05-05 11:13 49.30748 1.61762 35844 ft 444 kts 46°
2026-05-05 11:13 49.32920 1.64980 35597 ft 437 kts 47°
2026-05-05 11:13 49.35095 1.68256 34920 ft 441 kts 47°
2026-05-05 11:13 49.37300 1.71568 34301 ft 444 kts 47°
2026-05-05 11:14 49.39522 1.74871 34178 ft 447 kts 47°
2026-05-05 11:14 49.44094 1.81607 33967 ft 463 kts 47°
2026-05-05 11:15 49.48781 1.88488 33882 ft 464 kts 47°
2026-05-05 11:15 49.53431 1.95342 33875 ft 463 kts 46°
2026-05-05 11:16 49.57960 2.02030 33860 ft 439 kts 46°
2026-05-05 11:16 49.60133 2.05245 33701 ft 429 kts 46°
2026-05-05 11:16 49.62275 2.08420 33330 ft 424 kts 46°
2026-05-05 11:16 49.64412 2.11598 32416 ft 433 kts 46°
2026-05-05 11:17 49.66562 2.14799 32310 ft 422 kts 46°
2026-05-05 11:17 49.68699 2.17983 32008 ft 432 kts 46°
2026-05-05 11:17 49.70887 2.21251 31824 ft 443 kts 46°
2026-05-05 11:17 49.73120 2.24588 31572 ft 449 kts 46°
2026-05-05 11:18 49.75357 2.27933 31317 ft 445 kts 46°
2026-05-05 11:18 49.77568 2.31237 31080 ft 439 kts 46°
2026-05-05 11:18 49.79746 2.34498 30857 ft 434 kts 46°
2026-05-05 11:18 49.81912 2.37748 30641 ft 433 kts 46°
2026-05-05 11:19 49.84073 2.40997 30417 ft 432 kts 46°
2026-05-05 11:19 49.86228 2.44242 30201 ft 431 kts 46°
2026-05-05 11:19 49.88376 2.47478 29971 ft 430 kts 46°
2026-05-05 11:19 49.90491 2.50671 29717 ft 429 kts 46°
2026-05-05 11:20 49.92624 2.53892 29492 ft 427 kts 46°
2026-05-05 11:20 49.94751 2.57109 29257 ft 425 kts 46°
2026-05-05 11:20 49.96861 2.60307 29051 ft 423 kts 46°
2026-05-05 11:20 49.98965 2.63508 28821 ft 421 kts 46°
2026-05-05 11:21 50.01051 2.66690 28591 ft 420 kts 46°
2026-05-05 11:21 50.03128 2.69864 28378 ft 418 kts 46°
2026-05-05 11:21 50.05196 2.73027 28155 ft 416 kts 46°
2026-05-05 11:21 50.07256 2.76183 27925 ft 415 kts 46°
2026-05-05 11:22 50.09313 2.79338 27710 ft 414 kts 46°
2026-05-05 11:22 50.11367 2.82491 27489 ft 414 kts 46°
2026-05-05 11:22 50.13418 2.85644 27278 ft 413 kts 46°
2026-05-05 11:22 50.15466 2.88795 27061 ft 413 kts 46°
2026-05-05 11:23 50.17484 2.91905 26840 ft 413 kts 46°
2026-05-05 11:23 50.19521 2.95049 26626 ft 412 kts 46°
2026-05-05 11:23 50.21558 2.98195 26412 ft 411 kts 46°
2026-05-05 11:23 50.23586 3.01333 26200 ft 410 kts 46°
2026-05-05 11:24 50.25613 3.04472 25991 ft 409 kts 46°
2026-05-05 11:24 50.27628 3.07596 25775 ft 408 kts 46°
2026-05-05 11:24 50.29642 3.10723 25565 ft 406 kts 46°
2026-05-05 11:24 50.31638 3.13827 25352 ft 404 kts 46°
2026-05-05 11:25 50.33630 3.16928 25143 ft 403 kts 47°
2026-05-05 11:25 50.35614 3.20020 24930 ft 401 kts 47°
2026-05-05 11:25 50.37560 3.23057 24725 ft 399 kts 47°
2026-05-05 11:25 50.39528 3.26130 24503 ft 398 kts 47°
2026-05-05 11:26 50.41490 3.29196 24258 ft 399 kts 47°
2026-05-05 11:26 50.43451 3.32254 24006 ft 396 kts 46°
2026-05-05 11:26 50.45394 3.35282 23798 ft 392 kts 47°
2026-05-05 11:26 50.47316 3.38282 23470 ft 387 kts 47°
2026-05-05 11:27 50.49207 3.41240 22917 ft 382 kts 47°
2026-05-05 11:27 50.51087 3.44183 22206 ft 381 kts 47°
2026-05-05 11:27 50.52960 3.47120 21550 ft 378 kts 47°
2026-05-05 11:27 50.54823 3.50002 20956 ft 373 kts 44°
2026-05-05 11:28 50.56856 3.52522 20343 ft 371 kts 37°
2026-05-05 11:28 50.58973 3.54789 19770 ft 366 kts 35°
2026-05-05 11:28 50.61087 3.56990 19180 ft 362 kts 36°
2026-05-05 11:28 50.63166 3.59181 18649 ft 357 kts 36°
2026-05-05 11:29 50.65206 3.61373 18084 ft 353 kts 37°
2026-05-05 11:29 50.67214 3.63565 17443 ft 349 kts 37°
2026-05-05 11:29 50.69201 3.65750 16865 ft 345 kts 37°
2026-05-05 11:29 50.71154 3.67906 16291 ft 340 kts 37°
2026-05-05 11:30 50.73060 3.70015 15720 ft 337 kts 37°
2026-05-05 11:30 50.74966 3.72125 15179 ft 332 kts 37°
2026-05-05 11:30 50.76846 3.74212 14631 ft 328 kts 37°
2026-05-05 11:30 50.78703 3.76280 14078 ft 325 kts 37°
2026-05-05 11:31 50.80536 3.78323 13704 ft 316 kts 37°
2026-05-05 11:31 50.82295 3.80283 13532 ft 301 kts 37°
2026-05-05 11:31 50.83978 3.82160 13250 ft 291 kts 37°
2026-05-05 11:31 50.85613 3.83986 12857 ft 286 kts 36°
2026-05-05 11:32 50.87205 3.85787 12423 ft 283 kts 40°
2026-05-05 11:32 50.88114 3.87287 12114 ft 278 kts 57°
2026-05-05 11:32 50.89433 3.90750 11471 ft 277 kts 59°
2026-05-05 11:32 50.90429 3.93369 10969 ft 277 kts 59°
2026-05-05 11:33 50.91428 3.95968 10532 ft 275 kts 58°
2026-05-05 11:33 50.92081 3.97729 10190 ft 275 kts 64°
2026-05-05 11:33 50.92458 4.00667 9636 ft 277 kts 95°
2026-05-05 11:33 50.92139 4.03615 9213 ft 273 kts 101°
2026-05-05 11:34 50.91765 4.06553 8759 ft 270 kts 101°
2026-05-05 11:34 50.91400 4.09467 8293 ft 268 kts 100°
2026-05-05 11:34 50.90963 4.12331 7833 ft 267 kts 113°
2026-05-05 11:34 50.89786 4.14567 7374 ft 267 kts 146°
2026-05-05 11:35 50.88140 4.15899 6986 ft 265 kts 154°
2026-05-05 11:35 50.86430 4.17090 6883 ft 271 kts 155°
2026-05-05 11:35 50.84731 4.18265 6824 ft 261 kts 155°
2026-05-05 11:35 50.83104 4.19396 6802 ft 249 kts 155°
2026-05-05 11:36 50.81533 4.20497 6640 ft 246 kts 155°
2026-05-05 11:36 50.79991 4.21584 6374 ft 246 kts 154°
2026-05-05 11:36 50.78434 4.22687 6039 ft 244 kts 153°
2026-05-05 11:36 50.76885 4.23784 5677 ft 242 kts 153°
2026-05-05 11:37 50.75358 4.24866 5267 ft 240 kts 152°
2026-05-05 11:37 50.73835 4.25945 4821 ft 239 kts 153°
2026-05-05 11:37 50.72318 4.27020 4356 ft 239 kts 152°
2026-05-05 11:37 50.70868 4.28253 3895 ft 235 kts 136°
2026-05-05 11:38 50.70013 4.30349 3451 ft 225 kts 103°
2026-05-05 11:38 50.69887 4.32752 3080 ft 217 kts 82°
2026-05-05 11:38 50.70157 4.35056 2698 ft 212 kts 76°
2026-05-05 11:38 50.70483 4.37288 2393 ft 205 kts 74°
2026-05-05 11:39 50.70800 4.39446 2110 ft 199 kts 75°
2026-05-05 11:39 50.71294 4.41362 1988 ft 181 kts 46°
2026-05-05 11:39 50.72371 4.42179 2021 ft 175 kts 16°
2026-05-05 11:39 50.73535 4.42760 2008 ft 174 kts 20°
2026-05-05 11:40 50.74684 4.43343 1995 ft 174 kts 18°
2026-05-05 11:40 50.75848 4.43875 1990 ft 174 kts 17°
2026-05-05 11:40 50.77008 4.44373 1997 ft 172 kts 16°
2026-05-05 11:40 50.78157 4.44852 1978 ft 166 kts 15°
2026-05-05 11:41 50.79224 4.45289 2026 ft 154 kts 16°
2026-05-05 11:41 50.80260 4.45697 1920 ft 152 kts 16°
2026-05-05 11:41 50.81280 4.46108 1745 ft 152 kts 16°
2026-05-05 11:41 50.82299 4.46523 1537 ft 149 kts 17°
2026-05-05 11:42 50.83290 4.46929 1333 ft 144 kts 17°
2026-05-05 11:42 50.84246 4.47321 1125 ft 140 kts 17°
2026-05-05 11:42 50.85181 4.47704 963 ft 141 kts 17°
2026-05-05 11:42 50.86144 4.48098 743 ft 143 kts 16°
2026-05-05 11:43 50.87084 4.48472 552 ft 141 kts 15°
2026-05-05 11:43 50.88035 4.48874 383 ft 142 kts 15°
2026-05-05 11:43 50.88987 4.49262 198 ft 137 kts 15°
2026-05-05 11:43 50.89827 4.49603 142 ft 107 kts 14°
2026-05-05 11:44 50.90406 4.49839 124 ft 65 kts 14°
2026-05-05 11:44 50.90701 4.49930 120 ft 33 kts 358°
2026-05-05 11:44 50.90841 4.49889 118 ft 8 kts 336°
2026-05-05 11:44 50.90861 4.49813 123 ft 8 kts 256°
2026-05-05 11:45 50.90827 4.49747 123 ft 8 kts 208°
2026-05-05 11:45 50.90775 4.49723 123 ft 8 kts 195°
2026-05-05 11:45 50.90724 4.49701 119 ft 7 kts 194°
2026-05-05 11:45 50.90669 4.49679 120 ft 9 kts 194°
2026-05-05 11:46 50.90602 4.49651 123 ft 11 kts 195°
2026-05-05 11:46 50.90518 4.49617 123 ft 13 kts 194°
2026-05-05 11:46 50.90455 4.49511 122 ft 15 kts 245°
2026-05-05 11:46 50.90365 4.49437 121 ft 16 kts 194°
2026-05-05 11:47 50.90257 4.49394 125 ft 16 kts 197°
2026-05-05 11:47 50.90152 4.49351 124 ft 15 kts 194°
2026-05-05 11:47 50.90048 4.49310 130 ft 16 kts 194°
2026-05-05 11:47 50.89968 4.49204 133 ft 16 kts 254°
2026-05-05 11:48 50.89884 4.48897 135 ft 15 kts 246°
2026-05-05 11:48 50.89849 4.48765 135 ft 6 kts 264°
2026-05-05 11:48 50.89871 4.48728 133 ft 6 kts 331°
2026-05-05 11:49 50.89920 4.48691 126 ft 6 kts 335°
2026-05-05 11:49 50.89940 4.48676 128 ft 0 kts 335°